Погода в Гвасюги

Погода в Гвасюги : погода сейчас, прогноз погоды и архив. Всё, что Вы хотите узнать о погоде в Гвасюги!

Поиск расширенной информации на нашем сайте:

Другие новости

Новости СМИ2

Главная страница сайта

Новости сайта

03.07.2017

Напоминаем, что на нашем специализированном сайте Метеоцентр.Азия вы можете получить высокодетализированные автоматические прогнозы погоды по пунктам России, СНГ и мира в авиационном формате (включающие направление и скорость ветра, видимость, явления погоды, количество и форму облачности, нижнюю и верхнюю границу облачности).


Погода в Гвасюги - сегодня

Время (UTC), дата Ветер
(°,м/с) 
Видим.   Явления Облачность Т
(°С)
Тd
(°С)
f(%) Тe
(°С)
Pmin
(гПа)
dP
(гПа)
Po
(мм)
O2
(г/м3)
Тmin Tmax R s Состояние
почвы
21 19.09.17 тихо ()   0500 м  туман  ?/?  
+9.8 +9.6 99 +11  1004.4  0.4  737  285  +9.1      влажная 
00 20.09.17 тихо ()   4000 м  туман на расстоянии  10/10 600 м 
[St]
+11.5 +9.7 89 +13  1005.5  1.2  738  284           
03 20.09.17 360 (С) 20000 м    8/4 600 м верхняя 
[Cu Sc|Ci fib]
+17.5 +8.6 56 +18  1003.9  -1.1  737  278           
06 20.09.17 020 (С) 20000 м    10/3 600 м верхняя 
[Cu hum|Ci fib]
+19.4 +6.7 44 +20  1003  -0.7  737  276           
09 20.09.17 тихо ()   20000 м    8/0 верхняя 
[Ci fib]
+13.5 +11 85 +16  1004.5  737  281    +19.6       
12 20.09.17 тихо ()   20000 м    ясно 
+7.5 +6.9 96 +8  1006.9  1.9  739  289           
15 20.09.17 тихо ()   20000 м    3/0 верхняя 
[Ci sp]
+6.9 +6.5 97 +7  1007.4  0.5  739  289           
18 20.09.17 тихо ()   20000 м    5/0 верхняя 
[Ci sp]
+4.7 +4.5 99 +5  1008  0.4  740  292           
21 20.09.17 тихо ()   0200 м  туман  ?/?  
+5.9 +5.7 99 +6  1009.1  1.2  740  291  +4.5        сухая 
00 21.09.17 тихо ()   20000 м  в посл. час туман  3/0 верхняя 
[Ci fib]
+10.7 +10.3 97 +12  1009.7  0.9  741  285           
03 21.09.17 250 (З) 20000 м    4/0 600 м верхняя 
[Ci sp]
+19.4 +9.2 52 +21  1008.6  -0.5  741  277           
06 21.09.17 230 (ЮЗ) 20000 м    3/1 600 м верхняя 
[Cu hum|Ci fib]
+21.4 +7 39 +21  1007.7  -0.6  740  275           
09 21.09.17 290 (З) 20000 м    6/0 верхняя 
[Ci sp]
+16.5 +7.1 54 +17  1009.7  1.4  741  281    +21.8       
12 21.09.17 020 (С) 20000 м    4/0 верхняя 
[Ci sp]
+7.2 +6.5 95 +8  1012.4  2.1  743  291           
15 21.09.17 тихо ()   20000 м    3/0 верхняя 
[Ci fib]
+5.5 +4.8 95 +6  1013.6  1.1  744  293           
18 21.09.17 020 (С) 20000 м    1/0 верхняя 
[Ci fib]
+3.7 +3.2 97 +5  1014.8  0.9  744  295           
21 21.09.17 340 (С) 0500 м  туман  ?/?  
+3.6 +3.1 97 +4  1015.8  745  296  +3.3        сухая 
00 22.09.17 тихо ()   20000 м  {туман}  3/0 верхняя 
[Ci fib]
+10.8 +7.7 81 +11  1015.3  0.1  745  288           
03 22.09.17 160 (Ю) 20000 м    ясно 
+21.8 +8.6 43 +22  1012.4  -2  744  276           
06 22.09.17 230 (ЮЗ) 20000 м    ясно 
+24.8 +4.8 27 +25  1010.4  -1.8  742  273           
09 22.09.17 020 (С) 20000 м    3/1 600 м верхняя 
[Sc diur, vesp|Ci fib]
+15.6 +11.7 78 +21  1011.1  742  281    +25.1       
12 22.09.17 360 (С) 20000 м    ясно 
+8.7 +7.9 95 +10  1012.8  1.2  743  289           
15 22.09.17 тихо ()   20000 м    ясно 
+7.5 +6.9 96 +8  1012.7  -0.2  743  290           
18 22.09.17 360 (С) 20000 м    3/0 средняя, верхняя 
[Ac lent|Ci fib]
+5.2 +4.7 97 +6  1012.5  -0.4  743  293           
21 22.09.17 360 (С) 20000 м    8/5 600 м средняя, верхняя 
[Sc|Ac lent|Ci fib]
+5.4 +4.9 97 +6  1012.7  0.2  743  293  +4.9        сухая 
Время (UTC), дата Ветер
(°,м/с) 
Видим.   Явления Облачность Т
(°С)
Тd
(°С)
f(%) Тe
(°С)
Pmin
(гПа)
dP
(гПа)
Po
(мм)
O2
(г/м3)
Тmin Tmax R s Состояние
почвы

Для получения пояснительной информации подведите курсор к названию столбца.

ПОГОДА в Гвасюги - архив

Всё, что Вы хотите узнать о погоде в Гвасюги - удобно и подробно!

Выберите нужную дату (начиная с 1 января 2015* года) и нажмите кнопку "Найти".
Будут отображены архивные сводки погоды по пункту Гвасюги, начиная с указанной даты.


Отображать данные в формате CSV (для использования в таблицах Excel)


Внимание! Наш архив погоды предназначен исключительно для личного некоммерческого использования в познавательных целях. Если Вам необходимы официальные справки о состоянии погоды (для производственных, юридических, коммерческих и т.п. целей), обращайтесь в органы Росгидромета.

*Примечание: данная дата относится к архиву по метеостанциям СССР (Россия, СНГ, Балтия).
Архив по метеостанциям Зарубежной Европы и Азии (кроме Китая) хранится 10 дней, по другим регионам земного шара (Китай, Африка, Америка, Австралия, Океания) - 1 день.

Гвасюги - район местоположения метеостанции


Название, широта, долгота, высота метеостанции:
Гвасюги 47.7°ш. 136.2°д. 180 м над ур. моря [Российская Федерация]

Дополнительная информация

В oтличие oт бoльшинства пoгoдных сайтoв мы публикуем пoдрoбную метеoинфoрмацию в детальнoм прoфессиoнальнoм фoрмате.

Характеристики температуры и влажнoсти вoздуха измеряются на высoте 2 м в тени вдали oт зданий и деревьев.
Скoрoсть ветра измеряется на высoте 10 м (на урoвне рoста челoвека скoрoсть ветра ниже в 1.5-2 раза). Если метеoстанция нахoдится в гoрoде или в лесу, тo скoрoсть ветра занижена на 2-4 м/с пo сравнению с oткрытым местoм. Скoрoсть ветра над акватoриями крупных рек и oзёр, а также на вершинах хoлмoв на 2-5 м/с выше, чем в oбычных услoвиях.
Атмoсфернoе давление в разных тoчках местнoсти мoжет значительнo oтличаться oт давления на метеoстанции, в зависимoсти oт услoвий рельефа (при пoдъёме на 10 м давление пoнижается примернo на 1 мм рт.ст.).